| time (UTC) | temp F | wind direction | speed MPH | gust MPH | rain 1hr in | rain 24hr in | rain mn in | humidity % | barometer mb |
| 20260507182004 | 68 | 34 | 3.0 | 11.0 | 0.00 | 0.00 | 0.00 | 37 | 1015.3 |
| 20260507181513 | 68 | 295 | 2.0 | 9.0 | 0.00 | 0.00 | 0.00 | 40 | 1015.4 |
| 20260507181011 | 67 | 272 | 2.0 | 9.0 | 0.00 | 0.00 | 0.00 | 39 | 1015.5 |
| 20260507180507 | 67 | 257 | 4.0 | 10.0 | 0.00 | 0.00 | 0.00 | 38 | 1015.6 |
| 20260507180028 | 67 | 246 | 5.0 | 10.0 | 0.00 | 0.00 | 0.00 | 41 | 1015.6 |
| 20260507175509 | 66 | 233 | 4.0 | 10.0 | 0.00 | 0.00 | 0.00 | 41 | 1015.6 |
| 20260507175007 | 66 | 202 | 2.0 | 11.0 | 0.00 | 0.00 | 0.00 | 43 | 1015.9 |
| 20260507174504 | 66 | 211 | 4.0 | 11.0 | 0.00 | 0.00 | 0.00 | 42 | 1015.9 |
| 20260507174003 | 66 | 144 | 2.0 | 11.0 | 0.00 | 0.00 | 0.00 | 44 | 1016.0 |
| 20260507173503 | 65 | 232 | 2.0 | 13.0 | 0.00 | 0.00 | 0.00 | 43 | 1016.0 |
| 20260507173004 | 65 | 194 | 4.0 | 13.0 | 0.00 | 0.00 | 0.00 | 43 | 1016.2 |
| 20260507172503 | 65 | 208 | 4.0 | 11.0 | 0.00 | 0.00 | 0.00 | 42 | 1016.3 |
| 20260507172002 | 65 | 11 | 1.0 | 11.0 | 0.00 | 0.00 | 0.00 | 46 | 1016.3 |
| 20260507171513 | 65 | 285 | 3.0 | 12.0 | 0.00 | 0.00 | 0.00 | 44 | 1016.4 |
| 20260507171005 | 64 | 288 | 3.0 | 18.0 | 0.00 | 0.00 | 0.00 | 44 | 1016.5 |
| 20260507170506 | 64 | 182 | 4.0 | 18.0 | 0.00 | 0.00 | 0.00 | 45 | 1016.6 |
| 20260507170016 | 64 | 180 | 4.0 | 18.0 | 0.00 | 0.00 | 0.00 | 46 | 1016.8 |
| 20260507165509 | 63 | 166 | 2.0 | 11.0 | 0.00 | 0.00 | 0.00 | 48 | 1017.0 |
| 20260507165008 | 63 | 250 | 4.0 | 12.0 | 0.00 | 0.00 | 0.00 | 47 | 1017.0 |
| 20260507164526 | 63 | 254 | 6.0 | 14.0 | 0.00 | 0.00 | 0.00 | 46 | 1017.1 |
| 20260507164010 | 63 | 250 | 3.0 | 14.0 | 0.00 | 0.00 | 0.00 | 48 | 1017.1 |
| 20260507163509 | 63 | 250 | 6.0 | 14.0 | 0.00 | 0.00 | 0.00 | 49 | 1017.2 |
| 20260507163003 | 62 | 216 | 5.0 | 11.0 | 0.00 | 0.00 | 0.00 | 48 | 1017.1 |
| 20260507162505 | 62 | 267 | 2.0 | 13.0 | 0.00 | 0.00 | 0.00 | 49 | 1017.4 |
| 20260507162004 | 62 | 254 | 2.0 | 13.0 | 0.00 | 0.00 | 0.00 | 50 | 1017.5 |
| 20260507161507 | 61 | 222 | 4.0 | 11.0 | 0.00 | 0.00 | 0.00 | 49 | 1017.4 |
| 20260507161003 | 61 | 244 | 2.0 | 11.0 | 0.00 | 0.00 | 0.00 | 51 | 1017.4 |
| 20260507160504 | 61 | 262 | 5.0 | 11.0 | 0.00 | 0.00 | 0.00 | 51 | 1017.4 |
| 20260507160012 | 60 | 27 | 4.0 | 12.0 | 0.00 | 0.00 | 0.00 | 52 | 1017.3 |
| 20260507155505 | 60 | 251 | 3.0 | 12.0 | 0.00 | 0.00 | 0.00 | 52 | 1017.4 |
| 20260507155004 | 60 | 268 | 4.0 | 12.0 | 0.00 | 0.00 | 0.00 | 53 | 1017.5 |
| 20260507154520 | 60 | 190 | 3.0 | 12.0 | 0.00 | 0.00 | 0.00 | 52 | 1017.5 |
| 20260507154009 | 60 | 270 | 3.0 | 12.0 | 0.00 | 0.00 | 0.00 | 54 | 1017.5 |
| 20260507153509 | 60 | 248 | 2.0 | 11.0 | 0.00 | 0.00 | 0.00 | 55 | 1017.6 |
| 20260507153021 | 59 | 281 | 3.0 | 11.0 | 0.00 | 0.00 | 0.00 | 55 | 1017.7 |
| 20260507152511 | 59 | 223 | 5.0 | 11.0 | 0.00 | 0.00 | 0.00 | 55 | 1017.7 |
| 20260507152010 | 59 | 250 | 5.0 | 11.0 | 0.00 | 0.00 | 0.00 | 55 | 1017.9 |
| 20260507151506 | 58 | 342 | 3.0 | 10.0 | 0.00 | 0.00 | 0.00 | 56 | 1018.0 |
| 20260507151003 | 58 | 228 | 4.0 | 13.0 | 0.00 | 0.00 | 0.00 | 56 | 1018.0 |
| 20260507150503 | 58 | 200 | 4.0 | 13.0 | 0.00 | 0.00 | 0.00 | 58 | 1018.1 |
| 20260507150011 | 58 | 281 | 2.0 | 10.0 | 0.00 | 0.00 | 0.00 | 59 | 1018.1 |
| 20260507145507 | 57 | 175 | 3.0 | 11.0 | 0.00 | 0.00 | 0.00 | 62 | 1018.1 |
| 20260507145004 | 57 | 268 | 2.0 | 11.0 | 0.00 | 0.00 | 0.00 | 61 | 1018.2 |
| 20260507144514 | 57 | 229 | 2.0 | 8.0 | 0.00 | 0.00 | 0.00 | 61 | 1018.3 |
| 20260507144005 | 57 | 257 | 2.0 | 7.0 | 0.00 | 0.00 | 0.00 | 63 | 1018.4 |
| 20260507143504 | 56 | 309 | 1.0 | 7.0 | 0.00 | 0.00 | 0.00 | 65 | 1018.4 |
| 20260507143022 | 55 | 294 | 1.0 | 9.0 | 0.00 | 0.00 | 0.00 | 68 | 1018.4 |
| 20260507142505 | 55 | 221 | 2.0 | 9.0 | 0.00 | 0.00 | 0.00 | 66 | 1018.4 |
| 20260507142008 | 55 | 223 | 2.0 | 9.0 | 0.00 | 0.00 | 0.00 | 68 | 1018.4 |
| 20260507141523 | 55 | 229 | 2.0 | 6.0 | 0.00 | 0.00 | 0.00 | 69 | 1018.5 |
| 20260507141007 | 54 | 17 | 1.0 | 5.0 | 0.00 | 0.00 | 0.00 | 70 | 1018.4 |
| 20260507140507 | 54 | 238 | 1.0 | 5.0 | 0.00 | 0.00 | 0.00 | 71 | 1018.6 |
| 20260507140028 | 53 | 181 | 1.0 | 11.0 | 0.00 | 0.00 | 0.00 | 73 | 1018.7 |
| 20260507135503 | 52 | 239 | 3.0 | 11.0 | 0.00 | 0.00 | 0.00 | 73 | 1018.7 |
| 20260507135006 | 52 | 239 | 2.0 | 7.0 | 0.00 | 0.00 | 0.00 | 74 | 1018.7 |
| 20260507134516 | 51 | 209 | 2.0 | 5.0 | 0.00 | 0.00 | 0.00 | 76 | 1018.7 |
| 20260507134004 | 51 | 244 | 2.0 | 5.0 | 0.00 | 0.00 | 0.00 | 79 | 1018.7 |
| 20260507133508 | 50 | 22 | 1.0 | 4.0 | 0.00 | 0.00 | 0.00 | 80 | 1018.7 |
| 20260507133018 | 50 | 234 | 0.0 | 6.0 | 0.00 | 0.00 | 0.00 | 82 | 1018.8 |
| 20260507132506 | 49 | 182 | 1.0 | 6.0 | 0.00 | 0.00 | 0.00 | 82 | 1018.8 |
| 20260507132014 | 49 | 266 | 2.0 | 4.0 | 0.00 | 0.00 | 0.00 | 83 | 1018.8 |
| 20260507131527 | 48 | 226 | 0.0 | 5.0 | 0.00 | 0.00 | 0.00 | 85 | 1018.7 |
| 20260507131007 | 48 | 261 | 1.0 | 5.0 | 0.00 | 0.00 | 0.00 | 86 | 1018.8 |
| 20260507130506 | 47 | 242 | 2.0 | 4.0 | 0.00 | 0.00 | 0.00 | 88 | 1018.8 |
| 20260507130026 | 46 | 223 | 0.0 | 4.0 | 0.00 | 0.00 | 0.00 | 89 | 1018.8 |
| 20260507125507 | 46 | 242 | 0.0 | 4.0 | 0.00 | 0.00 | 0.00 | 90 | 1018.8 |
| 20260507125011 | 46 | 78 | 0.0 | 3.0 | 0.00 | 0.00 | 0.00 | 91 | 1018.8 |
| 20260507124526 | 45 | 78 | 0.0 | 3.0 | 0.00 | 0.00 | 0.00 | 93 | 1018.8 |
| 20260507124004 | 45 | 78 | 0.0 | 3.0 | 0.00 | 0.00 | 0.00 | 94 | 1018.7 |
| 20260507123504 | 44 | 78 | 0.0 | 2.0 | 0.00 | 0.00 | 0.00 | 94 | 1018.7 |
| 20260507123015 | 43 | 78 | 0.0 | 0.0 | 0.00 | 0.00 | 0.00 | 94 | 1018.6 |
| 20260507122504 | 43 | 78 | 0.0 | 0.0 | 0.00 | 0.00 | 0.00 | 94 | 1018.7 |
| 20260507122008 | 42 | 78 | 0.0 | 0.0 | 0.00 | 0.00 | 0.00 | 93 | 1018.7 |
| 20260507121519 | 42 | 78 | 0.0 | 0.0 | 0.00 | 0.00 | 0.00 | 93 | 1018.7 |
| 20260507121008 | 42 | 78 | 0.0 | 0.0 | 0.00 | 0.00 | 0.00 | 93 | 1018.7 |
| 20260507120507 | 41 | 78 | 0.0 | 0.0 | 0.00 | 0.00 | 0.00 | 92 | 1018.7 |
| 20260507120037 | 41 | 78 | 0.0 | 0.0 | 0.00 | 0.00 | 0.00 | 92 | 1018.6 |
| 20260507115507 | 41 | 78 | 0.0 | 0.0 | 0.00 | 0.00 | 0.00 | 91 | 1018.5 |
| 20260507115011 | 41 | 78 | 0.0 | 0.0 | 0.00 | 0.00 | 0.00 | 91 | 1018.4 |
| 20260507114527 | 41 | 78 | 0.0 | 0.0 | 0.00 | 0.00 | 0.00 | 91 | 1018.4 |
| 20260507114010 | 42 | 78 | 0.0 | 0.0 | 0.00 | 0.00 | 0.00 | 92 | 1018.4 |
| 20260507113511 | 42 | 78 | 0.0 | 0.0 | 0.00 | 0.00 | 0.00 | 92 | 1018.3 |
| 20260507113038 | 42 | 78 | 0.0 | 0.0 | 0.00 | 0.00 | 0.00 | 91 | 1018.4 |
| 20260507112508 | 42 | 78 | 0.0 | 0.0 | 0.00 | 0.00 | 0.00 | 91 | 1018.3 |
| 20260507112007 | 42 | 78 | 0.0 | 0.0 | 0.00 | 0.00 | 0.00 | 90 | 1018.4 |
| 20260507111514 | 42 | 78 | 0.0 | 0.0 | 0.00 | 0.00 | 0.00 | 90 | 1018.3 |
| 20260507111009 | 42 | 78 | 0.0 | 0.0 | 0.00 | 0.00 | 0.00 | 91 | 1018.2 |
| 20260507110505 | 42 | 78 | 0.0 | 0.0 | 0.00 | 0.00 | 0.00 | 91 | 1018.2 |
| 20260507110020 | 42 | 78 | 0.0 | 0.0 | 0.00 | 0.00 | 0.00 | 91 | 1018.2 |
| 20260507105507 | 42 | 78 | 0.0 | 0.0 | 0.00 | 0.00 | 0.00 | 91 | 1018.2 |
| 20260507105006 | 43 | 78 | 0.0 | 0.0 | 0.00 | 0.00 | 0.00 | 90 | 1018.2 |
| 20260507104524 | 43 | 78 | 0.0 | 0.0 | 0.00 | 0.00 | 0.00 | 90 | 1018.2 |
| 20260507104012 | 43 | 78 | 0.0 | 0.0 | 0.00 | 0.00 | 0.00 | 90 | 1018.2 |
| 20260507103508 | 43 | 78 | 0.0 | 0.0 | 0.00 | 0.00 | 0.00 | 89 | 1018.3 |
| 20260507103023 | 43 | 78 | 0.0 | 0.0 | 0.00 | 0.00 | 0.00 | 90 | 1018.4 |
| 20260507102507 | 43 | 78 | 0.0 | 0.0 | 0.00 | 0.00 | 0.00 | 89 | 1018.6 |
| 20260507102011 | 43 | 78 | 0.0 | 0.0 | 0.00 | 0.00 | 0.00 | 89 | 1018.7 |
| 20260507101530 | 43 | 78 | 0.0 | 0.0 | 0.00 | 0.00 | 0.00 | 88 | 1018.6 |
| 20260507101007 | 43 | 78 | 0.0 | 0.0 | 0.00 | 0.00 | 0.00 | 89 | 1018.6 |
| 20260507100504 | 43 | 78 | 0.0 | 0.0 | 0.00 | 0.00 | 0.00 | 87 | 1018.6 |
| 20260507100024 | 44 | 78 | 0.0 | 0.0 | 0.00 | 0.00 | 0.00 | 87 | 1018.7 |
| 20260507095506 | 44 | 78 | 0.0 | 0.0 | 0.00 | 0.00 | 0.00 | 87 | 1018.6 |
| 20260507095009 | 44 | 78 | 0.0 | 0.0 | 0.00 | 0.00 | 0.00 | 87 | 1018.7 |
| 20260507094520 | 44 | 78 | 0.0 | 0.0 | 0.00 | 0.00 | 0.00 | 85 | 1018.7 |
| 20260507094007 | 44 | 78 | 0.0 | 0.0 | 0.00 | 0.00 | 0.00 | 83 | 1018.7 |
| 20260507093508 | 45 | 78 | 0.0 | 0.0 | 0.00 | 0.00 | 0.00 | 83 | 1018.7 |
| 20260507093024 | 45 | 78 | 0.0 | 0.0 | 0.00 | 0.00 | 0.00 | 83 | 1018.7 |
| 20260507092507 | 45 | 78 | 0.0 | 0.0 | 0.00 | 0.00 | 0.00 | 84 | 1018.7 |
| 20260507092004 | 46 | 78 | 0.0 | 0.0 | 0.00 | 0.00 | 0.00 | 84 | 1018.7 |
| 20260507091504 | 46 | 78 | 0.0 | 0.0 | 0.00 | 0.00 | 0.00 | 83 | 1018.7 |
| 20260507091005 | 46 | 78 | 0.0 | 0.0 | 0.00 | 0.00 | 0.00 | 82 | 1018.7 |
| 20260507090504 | 47 | 78 | 0.0 | 0.0 | 0.00 | 0.00 | 0.00 | 82 | 1018.7 |
| 20260507090007 | 47 | 78 | 0.0 | 0.0 | 0.00 | 0.00 | 0.00 | 81 | 1018.7 |
| 20260507085502 | 47 | 78 | 0.0 | 0.0 | 0.00 | 0.00 | 0.00 | 80 | 1018.7 |
| 20260507085004 | 48 | 78 | 0.0 | 0.0 | 0.00 | 0.00 | 0.00 | 80 | 1018.7 |
| 20260507084503 | 48 | 78 | 0.0 | 0.0 | 0.00 | 0.00 | 0.00 | 80 | 1018.6 |
| 20260507084003 | 48 | 78 | 0.0 | 0.0 | 0.00 | 0.00 | 0.00 | 79 | 1018.7 |
| 20260507083503 | 49 | 78 | 0.0 | 0.0 | 0.00 | 0.00 | 0.00 | 79 | 1018.8 |
| 20260507083006 | 49 | 78 | 0.0 | 0.0 | 0.00 | 0.00 | 0.00 | 78 | 1018.8 |
| 20260507082503 | 49 | 78 | 0.0 | 0.0 | 0.00 | 0.00 | 0.00 | 78 | 1018.9 |
| 20260507082003 | 49 | 78 | 0.0 | 0.0 | 0.00 | 0.00 | 0.00 | 78 | 1018.8 |
| 20260507081507 | 49 | 78 | 0.0 | 0.0 | 0.00 | 0.00 | 0.00 | 78 | 1018.8 |
| 20260507081004 | 49 | 78 | 0.0 | 0.0 | 0.00 | 0.00 | 0.00 | 78 | 1018.9 |
| 20260507080504 | 49 | 78 | 0.0 | 0.0 | 0.00 | 0.00 | 0.00 | 78 | 1018.9 |
| 20260507080005 | 49 | 78 | 0.0 | 0.0 | 0.00 | 0.00 | 0.00 | 78 | 1018.9 |
| 20260507075503 | 49 | 78 | 0.0 | 0.0 | 0.00 | 0.00 | 0.00 | 78 | 1019.0 |
| 20260507075004 | 49 | 78 | 0.0 | 0.0 | 0.00 | 0.00 | 0.00 | 78 | 1019.1 |
| 20260507074506 | 49 | 78 | 0.0 | 0.0 | 0.00 | 0.00 | 0.00 | 79 | 1019.1 |
| 20260507074005 | 49 | 78 | 0.0 | 0.0 | 0.00 | 0.00 | 0.00 | 78 | 1019.1 |
| 20260507073503 | 49 | 78 | 0.0 | 0.0 | 0.00 | 0.00 | 0.00 | 78 | 1019.1 |
| 20260507073003 | 49 | 78 | 0.0 | 0.0 | 0.00 | 0.00 | 0.00 | 78 | 1019.1 |
| 20260507072503 | 49 | 78 | 0.0 | 0.0 | 0.00 | 0.00 | 0.00 | 78 | 1019.1 |
| 20260507072002 | 49 | 78 | 0.0 | 0.0 | 0.00 | 0.00 | 0.00 | 78 | 1019.2 |
| 20260507071505 | 49 | 78 | 0.0 | 0.0 | 0.00 | 0.00 | 0.00 | 78 | 1019.3 |
| 20260507071003 | 49 | 78 | 0.0 | 0.0 | 0.00 | 0.00 | 0.00 | 77 | 1019.2 |
| 20260507070504 | 49 | 78 | 0.0 | 0.0 | 0.00 | 0.00 | 0.00 | 77 | 1019.3 |
| 20260507070010 | 49 | 78 | 0.0 | 0.0 | 0.00 | 0.00 | 0.00 | 77 | 1019.3 |
| 20260507065507 | 49 | 78 | 0.0 | 0.0 | 0.00 | 0.00 | 0.00 | 77 | 1019.5 |
| 20260507065004 | 49 | 78 | 0.0 | 0.0 | 0.00 | 0.00 | 0.00 | 76 | 1019.5 |
| 20260507064508 | 49 | 78 | 0.0 | 1.0 | 0.00 | 0.00 | 0.00 | 76 | 1019.5 |
| 20260507064006 | 49 | 78 | 0.0 | 1.0 | 0.00 | 0.00 | 0.00 | 77 | 1019.4 |
| 20260507063504 | 49 | 78 | 0.0 | 0.0 | 0.00 | 0.00 | 0.00 | 78 | 1019.3 |
| 20260507063007 | 49 | 78 | 0.0 | 0.0 | 0.00 | 0.00 | 0.00 | 78 | 1019.3 |
| 20260507062504 | 49 | 78 | 0.0 | 0.0 | 0.00 | 0.00 | 0.00 | 78 | 1019.4 |
| 20260507062003 | 49 | 78 | 0.0 | 0.0 | 0.00 | 0.00 | 0.00 | 79 | 1019.3 |
| 20260507061509 | 48 | 78 | 0.0 | 0.0 | 0.00 | 0.00 | 0.00 | 79 | 1019.4 |
| 20260507061006 | 48 | 78 | 0.0 | 0.0 | 0.00 | 0.00 | 0.00 | 79 | 1019.3 |
| 20260507060503 | 48 | 78 | 0.0 | 0.0 | 0.00 | 0.00 | 0.00 | 79 | 1019.3 |
| 20260507060006 | 48 | 78 | 0.0 | 0.0 | 0.00 | 0.00 | 0.00 | 80 | 1019.5 |
| 20260507055504 | 47 | 78 | 0.0 | 0.0 | 0.00 | 0.00 | 0.00 | 81 | 1019.6 |
| 20260507055004 | 47 | 78 | 0.0 | 0.0 | 0.00 | 0.00 | 0.00 | 82 | 1019.6 |
| 20260507054508 | 47 | 78 | 0.0 | 0.0 | 0.00 | 0.00 | 0.00 | 82 | 1019.6 |
| 20260507054004 | 47 | 78 | 0.0 | 0.0 | 0.00 | 0.00 | 0.00 | 81 | 1019.7 |
| 20260507053504 | 47 | 78 | 0.0 | 0.0 | 0.00 | 0.00 | 0.00 | 81 | 1019.7 |
| 20260507053010 | 47 | 78 | 0.0 | 0.0 | 0.00 | 0.00 | 0.00 | 81 | 1019.5 |
| 20260507052502 | 47 | 78 | 0.0 | 0.0 | 0.00 | 0.00 | 0.00 | 80 | 1019.5 |
| 20260507052004 | 47 | 78 | 0.0 | 0.0 | 0.00 | 0.00 | 0.00 | 80 | 1019.5 |
| 20260507051510 | 47 | 78 | 0.0 | 0.0 | 0.00 | 0.00 | 0.00 | 80 | 1019.5 |
| 20260507051005 | 47 | 78 | 0.0 | 0.0 | 0.00 | 0.00 | 0.00 | 78 | 1019.5 |
| 20260507050503 | 47 | 78 | 0.0 | 0.0 | 0.00 | 0.00 | 0.00 | 78 | 1019.4 |
| 20260507050010 | 47 | 78 | 0.0 | 0.0 | 0.00 | 0.00 | 0.00 | 78 | 1019.5 |
| 20260507045504 | 47 | 78 | 0.0 | 0.0 | 0.00 | 0.00 | 0.00 | 76 | 1019.4 |
| 20260507045004 | 47 | 78 | 0.0 | 0.0 | 0.00 | 0.00 | 0.00 | 76 | 1019.4 |
| 20260507044510 | 48 | 78 | 0.0 | 0.0 | 0.00 | 0.00 | 0.00 | 75 | 1019.4 |
| 20260507044004 | 48 | 78 | 0.0 | 0.0 | 0.00 | 0.00 | 0.00 | 75 | 1019.3 |
| 20260507043503 | 48 | 78 | 0.0 | 0.0 | 0.00 | 0.00 | 0.00 | 74 | 1019.3 |
| 20260507043008 | 48 | 78 | 0.0 | 0.0 | 0.00 | 0.00 | 0.00 | 74 | 1019.3 |
| 20260507042505 | 49 | 78 | 0.0 | 0.0 | 0.00 | 0.00 | 0.00 | 73 | 1019.3 |
| 20260507042004 | 49 | 78 | 0.0 | 0.0 | 0.00 | 0.00 | 0.00 | 73 | 1019.3 |
| 20260507041510 | 50 | 78 | 0.0 | 0.0 | 0.00 | 0.00 | 0.00 | 73 | 1019.3 |
| 20260507041005 | 50 | 78 | 0.0 | 0.0 | 0.00 | 0.00 | 0.00 | 72 | 1019.2 |
| 20260507040504 | 50 | 78 | 0.0 | 0.0 | 0.00 | 0.00 | 0.00 | 71 | 1019.2 |
| 20260507040009 | 51 | 78 | 0.0 | 0.0 | 0.00 | 0.00 | 0.00 | 71 | 1019.4 |
| 20260507035502 | 51 | 78 | 0.0 | 0.0 | 0.00 | 0.00 | 0.00 | 70 | 1019.4 |
| 20260507035005 | 51 | 78 | 0.0 | 0.0 | 0.00 | 0.00 | 0.00 | 70 | 1019.4 |
| 20260507034514 | 51 | 78 | 0.0 | 0.0 | 0.00 | 0.00 | 0.00 | 68 | 1019.5 |
| 20260507034004 | 52 | 78 | 0.0 | 0.0 | 0.00 | 0.00 | 0.00 | 68 | 1019.5 |
| 20260507033503 | 52 | 78 | 0.0 | 0.0 | 0.00 | 0.00 | 0.00 | 70 | 1019.3 |
| 20260507033012 | 52 | 78 | 0.0 | 0.0 | 0.00 | 0.00 | 0.00 | 70 | 1019.3 |
| 20260507032503 | 52 | 78 | 0.0 | 0.0 | 0.00 | 0.00 | 0.00 | 70 | 1019.2 |
| 20260507032006 | 52 | 78 | 0.0 | 0.0 | 0.00 | 0.00 | 0.00 | 68 | 1019.2 |
| 20260507031513 | 53 | 78 | 0.0 | 0.0 | 0.00 | 0.00 | 0.00 | 67 | 1019.3 |
| 20260507031005 | 53 | 78 | 0.0 | 0.0 | 0.00 | 0.00 | 0.00 | 67 | 1019.3 |
| 20260507030506 | 53 | 78 | 0.0 | 0.0 | 0.00 | 0.00 | 0.00 | 66 | 1019.3 |
| 20260507030013 | 53 | 78 | 0.0 | 0.0 | 0.00 | 0.00 | 0.00 | 65 | 1019.2 |
| 20260507025502 | 53 | 78 | 0.0 | 0.0 | 0.00 | 0.00 | 0.00 | 65 | 1019.2 |
| 20260507025003 | 53 | 78 | 0.0 | 0.0 | 0.00 | 0.00 | 0.00 | 64 | 1019.1 |
| 20260507024511 | 54 | 78 | 0.0 | 0.0 | 0.00 | 0.00 | 0.00 | 61 | 1019.1 |
| 20260507024009 | 54 | 78 | 0.0 | 0.0 | 0.00 | 0.00 | 0.00 | 60 | 1019.1 |
| 20260507023503 | 54 | 78 | 0.0 | 0.0 | 0.00 | 0.00 | 0.00 | 60 | 1019.1 |
| 20260507023015 | 54 | 78 | 0.0 | 0.0 | 0.00 | 0.00 | 0.00 | 60 | 1018.9 |
| 20260507022503 | 54 | 78 | 0.0 | 0.0 | 0.00 | 0.00 | 0.00 | 60 | 1019.0 |
| 20260507022007 | 54 | 78 | 0.0 | 0.0 | 0.00 | 0.00 | 0.00 | 60 | 1019.0 |
| 20260507021514 | 55 | 78 | 0.0 | 0.0 | 0.00 | 0.00 | 0.00 | 59 | 1018.9 |
| 20260507021003 | 55 | 78 | 0.0 | 0.0 | 0.00 | 0.00 | 0.00 | 58 | 1018.9 |
| 20260507020503 | 55 | 78 | 0.0 | 0.0 | 0.00 | 0.00 | 0.00 | 57 | 1018.8 |
| 20260507020014 | 55 | 78 | 0.0 | 0.0 | 0.00 | 0.00 | 0.00 | 55 | 1018.7 |
| 20260507015503 | 55 | 78 | 0.0 | 0.0 | 0.00 | 0.00 | 0.00 | 55 | 1018.5 |
| 20260507015007 | 56 | 78 | 0.0 | 0.0 | 0.00 | 0.00 | 0.00 | 54 | 1018.4 |
| 20260507014520 | 56 | 78 | 0.0 | 0.0 | 0.00 | 0.00 | 0.00 | 53 | 1018.3 |
| 20260507014005 | 56 | 78 | 0.0 | 0.0 | 0.00 | 0.00 | 0.00 | 52 | 1018.3 |
| 20260507013503 | 56 | 78 | 0.0 | 0.0 | 0.00 | 0.00 | 0.00 | 52 | 1018.2 |
| 20260507013014 | 56 | 78 | 0.0 | 1.0 | 0.00 | 0.00 | 0.00 | 52 | 1018.2 |
| 20260507012503 | 57 | 78 | 0.0 | 1.0 | 0.00 | 0.00 | 0.00 | 52 | 1018.2 |
| 20260507012004 | 57 | 78 | 0.0 | 1.0 | 0.00 | 0.00 | 0.00 | 51 | 1018.1 |
| 20260507011508 | 57 | 78 | 0.0 | 2.0 | 0.00 | 0.00 | 0.00 | 51 | 1018.1 |
| 20260507011005 | 57 | 78 | 0.0 | 3.0 | 0.00 | 0.00 | 0.00 | 50 | 1018.1 |
| 20260507010503 | 57 | 78 | 0.0 | 3.0 | 0.00 | 0.00 | 0.00 | 50 | 1018.1 |
| 20260507010025 | 57 | 78 | 0.0 | 3.0 | 0.00 | 0.00 | 0.00 | 51 | 1018.1 |
| 20260507005503 | 57 | 78 | 0.0 | 3.0 | 0.00 | 0.00 | 0.00 | 50 | 1018.1 |
| 20260507005002 | 57 | 78 | 0.0 | 3.0 | 0.00 | 0.00 | 0.00 | 50 | 1018.1 |
| 20260507004506 | 57 | 78 | 1.0 | 3.0 | 0.00 | 0.00 | 0.00 | 49 | 1018.1 |
| 20260507004004 | 58 | 78 | 1.0 | 4.0 | 0.00 | 0.00 | 0.00 | 48 | 1018.1 |
| 20260507003503 | 58 | 68 | 0.0 | 4.0 | 0.00 | 0.00 | 0.00 | 49 | 1018.1 |
| 20260507003002 | 58 | 78 | 1.0 | 4.0 | 0.00 | 0.00 | 0.00 | 49 | 1018.0 |
| 20260507002502 | 58 | 78 | 0.0 | 4.0 | 0.00 | 0.00 | 0.00 | 48 | 1018.1 |
| 20260507002003 | 58 | 78 | 1.0 | 6.0 | 0.00 | 0.00 | 0.00 | 48 | 1018.1 |
| 20260507001504 | 58 | 84 | 1.0 | 5.0 | 0.00 | 0.00 | 0.00 | 47 | 1018.1 |
| 20260507001003 | 58 | 65 | 1.0 | 5.0 | 0.00 | 0.00 | 0.00 | 47 | 1018.1 |
| 20260507000503 | 58 | 84 | 1.0 | 5.0 | 0.00 | 0.00 | 0.00 | 47 | 1018.1 |
| 20260507000008 | 58 | 34 | 1.0 | 4.0 | 0.00 | 0.00 | 0.00 | 47 | 1018.1 |
| 20260506235504 | 58 | 64 | 1.0 | 4.0 | 0.00 | 0.00 | 0.00 | 45 | 1017.9 |
| 20260506235004 | 58 | 68 | 1.0 | 4.0 | 0.00 | 0.00 | 0.00 | 45 | 1017.9 |
| 20260506234513 | 59 | 73 | 0.0 | 4.0 | 0.00 | 0.00 | 0.00 | 46 | 1017.8 |
| 20260506234007 | 59 | 84 | 0.0 | 4.0 | 0.00 | 0.00 | 0.00 | 45 | 1017.8 |
| 20260506233504 | 59 | 84 | 2.0 | 5.0 | 0.00 | 0.00 | 0.00 | 46 | 1017.7 |
| 20260506233010 | 59 | 88 | 1.0 | 5.0 | 0.00 | 0.00 | 0.00 | 46 | 1017.7 |
| 20260506232502 | 59 | 57 | 2.0 | 4.0 | 0.00 | 0.00 | 0.00 | 46 | 1017.8 |
| 20260506232002 | 59 | 65 | 1.0 | 4.0 | 0.00 | 0.00 | 0.00 | 45 | 1017.7 |
| 20260506231504 | 59 | 231 | 0.0 | 6.0 | 0.00 | 0.00 | 0.00 | 46 | 1017.7 |
| 20260506231004 | 59 | 69 | 1.0 | 6.0 | 0.00 | 0.00 | 0.00 | 45 | 1017.7 |
| 20260506230502 | 59 | 46 | 1.0 | 7.0 | 0.00 | 0.00 | 0.00 | 44 | 1017.7 |
| 20260506230005 | 60 | 54 | 0.0 | 9.0 | 0.00 | 0.00 | 0.00 | 46 | 1017.7 |
| 20260506225504 | 60 | 85 | 3.0 | 9.0 | 0.00 | 0.00 | 0.00 | 44 | 1017.8 |
| 20260506225005 | 60 | 63 | 1.0 | 4.0 | 0.00 | 0.00 | 0.00 | 43 | 1017.6 |
| 20260506224523 | 60 | 321 | 1.0 | 4.0 | 0.00 | 0.00 | 0.00 | 43 | 1017.6 |
| 20260506224004 | 59 | 71 | 1.0 | 4.0 | 0.00 | 0.00 | 0.00 | 44 | 1017.4 |
| 20260506223506 | 59 | 82 | 0.0 | 6.0 | 0.00 | 0.00 | 0.00 | 46 | 1017.3 |
| 20260506223012 | 60 | 64 | 1.0 | 6.0 | 0.00 | 0.00 | 0.00 | 42 | 1017.3 |
| 20260506222504 | 61 | 280 | 2.0 | 6.0 | 0.00 | 0.00 | 0.00 | 42 | 1017.3 |
| 20260506222008 | 61 | 93 | 1.0 | 8.0 | 0.00 | 0.00 | 0.00 | 43 | 1017.3 |
| 20260506221514 | 61 | 61 | 2.0 | 8.0 | 0.00 | 0.00 | 0.00 | 42 | 1017.3 |
| 20260506221005 | 62 | 201 | 1.0 | 8.0 | 0.00 | 0.00 | 0.00 | 41 | 1017.4 |
| 20260506220503 | 62 | 82 | 2.0 | 8.0 | 0.00 | 0.00 | 0.00 | 43 | 1017.4 |
| 20260506220012 | 62 | 184 | 1.0 | 7.0 | 0.00 | 0.00 | 0.00 | 42 | 1017.5 |
| 20260506215502 | 61 | 77 | 2.0 | 10.0 | 0.00 | 0.00 | 0.00 | 42 | 1017.5 |
| 20260506215003 | 61 | 82 | 3.0 | 10.0 | 0.00 | 0.00 | 0.00 | 41 | 1017.5 |
| 20260506214510 | 62 | 68 | 4.0 | 8.0 | 0.00 | 0.00 | 0.00 | 41 | 1017.6 |
| 20260506214005 | 62 | 39 | 1.0 | 6.0 | 0.00 | 0.00 | 0.00 | 40 | 1017.6 |
| 20260506213505 | 61 | 88 | 2.0 | 8.0 | 0.00 | 0.00 | 0.00 | 40 | 1017.7 |
| 20260506213011 | 61 | 71 | 3.0 | 8.0 | 0.00 | 0.00 | 0.00 | 40 | 1017.8 |
| 20260506212504 | 62 | 49 | 2.0 | 6.0 | 0.00 | 0.00 | 0.00 | 41 | 1017.8 |
| 20260506212006 | 61 | 44 | 1.0 | 6.0 | 0.00 | 0.00 | 0.00 | 40 | 1017.8 |
| 20260506211519 | 61 | 63 | 2.0 | 9.0 | 0.00 | 0.00 | 0.00 | 43 | 1017.8 |
| 20260506211009 | 60 | 217 | 1.0 | 9.0 | 0.00 | 0.00 | 0.00 | 44 | 1017.8 |
| 20260506210503 | 61 | 61 | 2.0 | 8.0 | 0.00 | 0.00 | 0.00 | 41 | 1017.8 |
| 20260506210013 | 61 | 89 | 3.0 | 7.0 | 0.00 | 0.00 | 0.00 | 40 | 1017.9 |
| 20260506205507 | 62 | 64 | 2.0 | 6.0 | 0.00 | 0.00 | 0.00 | 40 | 1017.9 |
| 20260506205003 | 62 | 154 | 1.0 | 7.0 | 0.00 | 0.00 | 0.00 | 39 | 1018.0 |
| 20260506204504 | 62 | 69 | 3.0 | 8.0 | 0.00 | 0.00 | 0.00 | 40 | 1018.0 |
| 20260506204004 | 62 | 74 | 0.0 | 8.0 | 0.00 | 0.00 | 0.00 | 40 | 1018.2 |
| 20260506203506 | 62 | 61 | 2.0 | 5.0 | 0.00 | 0.00 | 0.00 | 42 | 1018.0 |
| 20260506203008 | 62 | 61 | 2.0 | 4.0 | 0.00 | 0.00 | 0.00 | 43 | 1018.2 |
| 20260506202503 | 62 | 52 | 2.0 | 4.0 | 0.00 | 0.00 | 0.00 | 42 | 1018.4 |
| 20260506202004 | 62 | 11 | 1.0 | 8.0 | 0.00 | 0.00 | 0.00 | 40 | 1018.4 |
| 20260506201516 | 61 | 61 | 2.0 | 8.0 | 0.00 | 0.00 | 0.00 | 42 | 1018.4 |
| 20260506201006 | 61 | 345 | 2.0 | 5.0 | 0.00 | 0.00 | 0.00 | 44 | 1018.5 |
| 20260506200505 | 60 | 57 | 2.0 | 5.0 | 0.00 | 0.00 | 0.00 | 43 | 1018.6 |
| 20260506200017 | 59 | 178 | 1.0 | 8.0 | 0.00 | 0.00 | 0.00 | 44 | 1018.7 |
| 20260506195503 | 59 | 51 | 3.0 | 8.0 | 0.00 | 0.00 | 0.00 | 43 | 1018.7 |
| 20260506195007 | 60 | 70 | 2.0 | 6.0 | 0.00 | 0.00 | 0.00 | 42 | 1018.7 |
| 20260506194528 | 60 | 328 | 1.0 | 8.0 | 0.00 | 0.00 | 0.00 | 41 | 1018.8 |
| 20260506194006 | 60 | 85 | 2.0 | 8.0 | 0.00 | 0.00 | 0.00 | 41 | 1018.8 |
| 20260506193503 | 60 | 69 | 2.0 | 11.0 | 0.00 | 0.00 | 0.00 | 42 | 1018.8 |
| 20260506193006 | 61 | 79 | 1.0 | 11.0 | 0.00 | 0.00 | 0.00 | 42 | 1018.7 |
| 20260506192504 | 61 | 67 | 2.0 | 10.0 | 0.00 | 0.00 | 0.00 | 46 | 1018.7 |
| 20260506192004 | 60 | 53 | 2.0 | 7.0 | 0.00 | 0.00 | 0.00 | 43 | 1018.7 |
| 20260506191514 | 60 | 76 | 1.0 | 7.0 | 0.00 | 0.00 | 0.00 | 42 | 1018.7 |
| 20260506191004 | 60 | 60 | 3.0 | 9.0 | 0.00 | 0.00 | 0.00 | 44 | 1018.7 |
| 20260506190505 | 60 | 90 | 3.0 | 9.0 | 0.00 | 0.00 | 0.00 | 42 | 1018.8 |
| 20260506190020 | 61 | 352 | 2.0 | 9.0 | 0.00 | 0.00 | 0.00 | 44 | 1018.7 |
| 20260506185507 | 60 | 51 | 1.0 | 6.0 | 0.00 | 0.00 | 0.00 | 45 | 1018.7 |
| 20260506185006 | 59 | 93 | 3.0 | 9.0 | 0.00 | 0.00 | 0.00 | 43 | 1018.8 |
| 20260506184524 | 59 | 96 | 2.0 | 9.0 | 0.00 | 0.00 | 0.00 | 44 | 1018.8 |
| 20260506184006 | 59 | 53 | 2.0 | 12.0 | 0.00 | 0.00 | 0.00 | 43 | 1018.9 |
| 20260506183508 | 58 | 9 | 4.0 | 12.0 | 0.00 | 0.00 | 0.00 | 46 | 1018.9 |
| 20260506183018 | 58 | 95 | 1.0 | 12.0 | 0.00 | 0.00 | 0.00 | 50 | 1018.9 |
| 20260506182507 | 57 | 92 | 3.0 | 12.0 | 0.00 | 0.00 | 0.00 | 47 | 1019.2 |